Location: Grieser Field
(39.7333°N, 81.7975°W)
Time: 11:18:44
(UTC-04:00)

Hubble Space Telescope - Visible Passes

Search period start: 29 March 2017 00:00
Search period end: 08 April 2017 00:00
Orbit: 538 x 542 km, 28.5° (Epoch: 27 March)

Date Brightness Start Highest point End Pass type
(mag) Time Alt. Az. Time Alt. Az. Time Alt. Az.
29 Mar 2.8 06:31:51 10° SW 06:34:34 17° S 06:37:17 10° SE visible
30 Mar 2.7 06:21:52 10° SW 06:24:27 17° S 06:27:09 10° SE visible
31 Mar 2.7 06:12:23 12° SW 06:14:20 16° S 06:16:57 10° SE visible
01 Apr 2.7 06:02:56 14° SSW 06:04:13 15° S 06:06:42 10° SSE visible
02 Apr 2.7 05:53:32 14° SSW 05:54:05 14° S 05:56:20 10° SSE visible
03 Apr 2.9 05:44:11 13° S 05:44:11 13° S 05:45:53 10° SSE visible
04 Apr 3.2 05:34:56 10° S 05:34:56 10° S 05:35:10 10° S visible
